PEGASUS R/B, 41892

Orbit data source: Space-Track

PEGASUS R/B, 41892 is space debris in LEO originally from a launch on Thu, 15 Dec 2016 UTC launched from the Pegasus Launch, Eastern Range Air Space (ERAS). Debris objects in space refer to the collection of defunct objects orbiting the Earth. Examples of debris include non-operational satellites, rocket bodies, and fragments generated from explosions, collisions, or faulty payload assembly.

Loading next visibility...
Identifier
41892, 2016-078J
Orbit
LEO
Country
Flag of USUS
Related business
Manufacturer
OATK FSG Utah
Mission
Spacecraft
Bus & Motor
ORION 38, Unknown motor
Mass
315 kg wet, 202 kg dry
Launch date (UTC)
2016-12-15 (9 years ago)
Launch vehicle
Unknown
Launch site
Pegasus Launch, Eastern Range Air Space (ERAS)
Object type
Payload
Rocket body
Debris
Shape & HBR
Cyl + 1 Nozzle, 0.7 m
Radar Cross Section
1.427 m², Large (>1 m²)

Expand to show TLE details & history
Last TLE update: 1 day ago

TLE from 1 day ago
0 PEGASUS R/B
1 41892U 16078J   25241.83793130  .00025282  00000-0  44358-3 0  9990
2 41892  34.9367 319.5774 0008089 326.8879  33.1336 15.49526470484134
Epoch: 2025-08-29T20:06Z
TLE epoch observation values (Epoch: 2025-08-29T20:06:37.264Z)
Latitude
-0°
Longitude
39.64129°
Altitude
412.397 km
Speed
7.668 km/s
True Right ascension
21h 18m 18s
True Declination
0° 00' 00"
Sunlit
Object was in full shadow at epoch
Visualization orbit readout
Latitude
Unknown
Longitude
Unknown
Altitude
Unknown
Speed
Unknown
Apparent Right ascension
Unknown
Apparent Declination
Unknown
Sunlit
N/A
Visualization observer readout
Local Sidereal Time
15:36:35
Azimuth
Unknown
Elevation
Unknown
Doppler factor
Unknown
Orbital elements
Apogee altitude
426.908 km
Perigee altitude
415.908 km
Semi-major axis
6,799.545 km
Eccentricity
0.00081
Inclination
34.9367°
RAAN
319.5774°
Arg. of periapsis
326.8879°
True anomaly
33.18431°
Mean anomaly
33.1336°
Eccentric anomaly
33.15895°
Mean motion
3.871 °/min
Orbital period
93 mins
BSTAR
0.00044358
Loading maneuver chart data...
Computing Atmospheric mass density...
Loading historical data...
Loading historical data...
Loading historical data...
Loading historical data...
Loading historical data...
Loading historical data...
Loading historical data...

Documentation

Showing up to 5 results
|